User: anonymous   Login
Location: Unspecified
(0.0000°N, 0.0000°E)
Time: 16:39:31
(UTC+00:00)
Language:

Explorer 20 - Orbit

View from above orbital plane
View from above orbital plane
View from above satellite
View from above satellite

Ground track
Ground track

The orbit data is extracted from the following two-line orbital elements,

1   870U 64051A   18169.63055976 +.00000024 +00000-0 +12001-4 0  9991
2   870 079.8975 214.5965 0098071 034.5585 326.1893 13.91104799727304
Epoch (UTC): 18 June 2018 15:08:00
Eccentricity: 0.0098071
inclination: 79.8975°
perigee height: 853 km
apogee height: 996 km
right ascension of ascending node: 214.5965°
argument of perigee: 34.5585°
revolutions per day: 13.91104799
mean anomaly at epoch: 326.1893°
orbit number at epoch: 72730

The dashed part of the orbit path shows where the satellite is in the earth's shadow,  

DLR